Weather History for CYCB - February, 2013

Change the Weather History Date:

Saturday, February 23, 2013

  Actual Average Record
Temperature  
Mean Temperature -26 °F -  
Max Temperature -21 °F -19 °F 5 °F (1997)
Min Temperature -30 °F -30 °F -47 °F (2004)
Degree Days  
Heating Degree Days 90    
Moisture  
Dew Point -33 °F    
Average Humidity 65    
Maximum Humidity 69    
Minimum Humidity 46    
Precipitation  
Precipitation 0.00 in - - ()
Sea Level Pressure  
Sea Level Pressure 30.07 in    
Wind  
Wind Speed 18 mph ()    
Max Wind Speed 26 mph    
Max Gust Speed 30 mph    
Visibility 3.0 miles    
Events Fog , Snow    
Averages and records for this station are not official NWS values.
T = Trace of Precipitation, MM = Missing Value Source: Averaged Metar Reports

Daily Weather History Graph

Daily Weather History Graph

Search for Another Location

Airport or City:

Trip Planner

Search our weather history database for the weather conditions in past years. The results will help you decide how hot, cold, wet, or windy it might be!

Date:

Astronomy

Feb. 23, 2013 Rise Set
Actual Time 7:48 AM MST 4:40 PM MST
Civil Twilight 6:47 AM MST 5:41 PM MST
Nautical Twilight 5:40 AM MST 6:49 PM MST
Astronomical Twilight 4:31 AM MST 7:59 PM MST
Moon 2:17 PM MST (2/23) 6:56 AM MST (2/23)
Length of Visible Light 10h 53m
Length of Day
8h 51m
Waxing Gibbous, 95% of the Moon is Illuminated
Feb 23
Waxing Gibbous
Feb 25
Full
Mar 4
Last Quarter
Mar 11
New
Mar 19
First Quarter

Hourly Weather History & Observations

Time (MST) Temp. Windchill Dew Point Humidity Pressure Visibility Wind Dir Wind Speed Gust Speed Precip Events Conditions
12:00 AM -29.2 °F -63.9 °F -36.4 °F 68% 30.03 in 0.8 mi NNE 26.5 mph - N/A Snow Blowing Snow
1:00 AM -27.4 °F -59.0 °F -34.6 °F 69% 30.04 in 0.8 mi NE 21.9 mph 27.6 mph N/A Snow Blowing Snow
2:00 AM -27.4 °F -61.4 °F -34.6 °F 69% 30.03 in 0.8 mi NE 26.5 mph - N/A Snow Blowing Snow
3:00 AM -25.6 °F -56.7 °F -34.6 °F 63% 30.04 in 0.8 mi NE 21.9 mph - N/A Snow Blowing Snow
4:00 AM -25.6 °F -57.3 °F -32.8 °F 69% 30.04 in 0.8 mi NE 23.0 mph - N/A Snow Blowing Snow
5:00 AM -25 °F - -33 °F 49% 30.04 in 1 mi NE 24.2 mph - - Snow Blowing Snow
5:00 AM -25.6 °F -57.9 °F -32.8 °F 69% 30.04 in 0.8 mi NE 24.2 mph - N/A Snow Blowing Snow
6:00 AM -25.6 °F -57.3 °F -32.8 °F 69% 30.04 in 0.8 mi NE 23.0 mph - N/A Snow Blowing Snow
7:00 AM -23.8 °F -54.3 °F -32.8 °F 63% 30.03 in 0.6 mi NE 21.9 mph - N/A Snow Blowing Snow
7:26 AM - - - N/A% - 0.5 mi NNE 21.9 mph 27.6 mph N/A   Unknown
7:55 AM - - - N/A% - 0.4 mi NNE 24.2 mph 29.9 mph N/A   Unknown
8:00 AM -23.8 °F -55.5 °F -31.0 °F 69% 30.02 in 0.4 mi NNE 24.2 mph 29.9 mph N/A Snow Blowing Snow
9:00 AM -23.8 °F -54.9 °F -31.0 °F 69% 30.03 in 0.4 mi NE 23.0 mph - N/A Snow Blowing Snow
10:00 AM -23.8 °F -52.9 °F -32.8 °F 63% 30.04 in 0.4 mi NNE 19.6 mph 26.5 mph N/A Snow Blowing Snow
11:00 AM -24 °F - -32 °F 50% 30.05 in 0 mi NNE 23.0 mph - - Snow Blowing Snow
11:00 AM -23.8 °F -54.9 °F -31.0 °F 69% 30.05 in 0.4 mi NNE 23.0 mph - N/A Snow Blowing Snow
12:00 PM -22.0 °F -51.9 °F -29.2 °F 69% 30.05 in 0.4 mi NNE 21.9 mph 27.6 mph N/A Snow Blowing Snow
12:15 PM - - - N/A% - 0.6 mi NNE 19.6 mph 25.3 mph N/A   Unknown
12:25 PM - - - N/A% - 0.8 mi NNE 17.3 mph 23.0 mph N/A   Unknown
1:00 PM -22.0 °F -51.3 °F -29.2 °F 69% 30.06 in 0.6 mi NNE 20.7 mph 26.5 mph N/A Snow Blowing Snow
2:00 PM -22.0 °F -50.6 °F -29.2 °F 69% 30.07 in 0.8 mi NNE 19.6 mph 25.3 mph N/A Snow Blowing Snow
3:00 PM -22.0 °F -50.6 °F -31.0 °F 63% 30.09 in 0.8 mi NNE 19.6 mph 25.3 mph N/A Snow Blowing Snow
3:42 PM - - - N/A% - 1.0 mi NNE 17.3 mph 23.0 mph N/A   Unknown
3:53 PM - - - N/A% - 1.5 mi NNE 16.1 mph - N/A   Mostly Cloudy
4:00 PM -23.8 °F -49.8 °F -32.8 °F 63% 30.11 in 1.5 mi NNE 15.0 mph - N/A Snow Low Drifting Snow
5:00 PM -25 °F - -33 °F 50% 30.11 in 1 mi NNE 15.0 mph - - Snow Low Drifting Snow
5:00 PM -25.6 °F -52.1 °F -32.8 °F 69% 30.11 in 1.5 mi NNE 15.0 mph - N/A Snow Low Drifting Snow
5:12 PM - - - N/A% - 8.0 mi North 9.2 mph - N/A Fog Scattered Clouds
6:00 PM -27.4 °F -52.5 °F -34.6 °F 69% 30.12 in 8.0 mi North 12.7 mph - N/A Fog Partly Cloudy
7:00 PM -25.6 °F -39.8 °F -32.8 °F 69% 30.12 in 8.0 mi North 4.6 mph - N/A Fog Scattered Clouds
8:00 PM -27.4 °F -45.9 °F -34.6 °F 69% 30.12 in 12.0 mi NNE 6.9 mph - N/A   Partly Cloudy
10:00 PM -29.2 °F -51.2 °F -36.4 °F 68% 30.14 in 12.0 mi North 9.2 mph - N/A   Partly Cloudy
11:00 PM -30 °F - -38 °F 46% 30.14 in 12 mi North 9.2 mph - -  
11:00 PM -29.2 °F -46.2 °F -38.2 °F 62% 30.14 in 12.0 mi North 5.8 mph - N/A   Clear
11:10 PM - - - N/A% - 12.0 mi NNW 4.6 mph - N/A   Clear